Change the Weather History Date:

Wednesday, July 10, 2013

  Actual Average (KLCH) Record (KLCH)
Temperature  
Mean Temperature 82 °F 83 °F  
Max Temperature 91 °F 91 °F 101 °F (1917)
Min Temperature 73 °F 75 °F 63 °F (1947)
Degree Days  
Heating Degree Days 0 0  
Month to date heating degree days 0  
Since 1 June heating degree days 0  
Since 1 July heating degree days 0  
Cooling Degree Days 17 18  
Month to date cooling degree days 177  
Year to date cooling degree days 1195  
Since 1 June cooling degree days 657  
Growing Degree Days 32 (Base 50)    
Moisture  
Dew Point 74 °F    
Average Humidity 79    
Maximum Humidity 99    
Minimum Humidity 53    
Precipitation  
Precipitation 0.00 in 0.19 in 2.13 in (1953)
Month to date precipitation 2.03  
Year to date precipitation 29.76  
Snow  
Snow 0.00 in 0.00 in 0.00 in ()
Month to date snowfall 0.0  
Since 1 June snowfall 0.0  
Since 1 July snowfall 0.0  
Snow Depth -    
Sea Level Pressure  
Sea Level Pressure 30.05 in    
Wind  
Wind Speed 2 mph (SW)    
Max Wind Speed 10 mph    
Max Gust Speed -    
Visibility 10 miles    
Events      
T = Trace of Precipitation, MM = Missing Value Source: NWS Daily Summary

Daily Weather History Graph

Daily Weather History Graph

Search for Another Location

Airport or City:

Trip Planner

Search our weather history database for the weather conditions in past years. The results will help you decide how hot, cold, wet, or windy it might be!

Date:

Astronomy

Jul. 10, 2013 Rise Set
Actual Time 6:16 AM CDT 8:15 PM CDT
Civil Twilight 5:49 AM CDT 8:42 PM CDT
Nautical Twilight 5:16 AM CDT 9:15 PM CDT
Astronomical Twilight 4:41 AM CDT 9:50 PM CDT
Moon 8:25 AM CDT (7/10) 9:40 PM CDT (7/10)
Length of Visible Light 14h 52m
Length of Day
13h 58m
Waxing Crescent, 5% of the Moon is Illuminated
Jul 10
Waxing Crescent
Jul 15
First Quarter
Jul 22
Full
Jul 29
Last Quarter
Aug 6
New

Hourly Weather History & Observations

Time (CDT) Temp. Heat Index Dew Point Humidity Pressure Visibility Wind Dir Wind Speed Gust Speed Precip Events Conditions
12:15 AM 76.5 °F - 75.6 °F 97% 30.10 in 10.0 mi Calm Calm - N/A   Clear
12:35 AM 76.6 °F - 75.6 °F 96% 30.10 in 10.0 mi Calm Calm - N/A   Clear
12:55 AM 76.5 °F - 75.4 °F 96% 30.09 in 10.0 mi Calm Calm - N/A   Clear
1:15 AM 76.1 °F - 75.2 °F 97% 30.09 in 10.0 mi Calm Calm - N/A   Clear
1:35 AM 75.9 °F - 75.0 °F 97% 30.09 in 10.0 mi Calm Calm - N/A   Clear
1:55 AM 75.9 °F - 75.0 °F 97% 30.09 in 10.0 mi Calm Calm - N/A   Clear
2:15 AM 75.6 °F - 74.7 °F 97% 30.09 in 10.0 mi Calm Calm - N/A   Clear
2:55 AM 75.4 °F - 74.7 °F 98% 30.08 in 10.0 mi South 3.5 mph - N/A   Clear
3:15 AM 75.4 °F - 74.7 °F 98% 30.08 in 10.0 mi Calm Calm - N/A   Clear
3:35 AM 75.7 °F - 74.8 °F 97% 30.09 in 10.0 mi Calm Calm - N/A   Clear
3:55 AM 75.4 °F - 74.7 °F 98% 30.09 in 10.0 mi Calm Calm - N/A   Clear
4:15 AM 75.2 °F - 74.5 °F 98% 30.09 in 10.0 mi Calm Calm - N/A   Clear
4:35 AM 75.0 °F - 74.7 °F 99% 30.09 in 10.0 mi Calm Calm - N/A   Clear
4:55 AM 74.7 °F - 74.3 °F 99% 30.09 in 10.0 mi Calm Calm - N/A   Clear
5:15 AM 74.3 °F - 73.9 °F 99% 30.10 in 10.0 mi Calm Calm - N/A   Clear
5:35 AM 73.9 °F - 73.6 °F 99% 30.09 in 10.0 mi North - - N/A   Clear
5:55 AM 74.5 °F - 74.1 °F 99% 30.10 in 10.0 mi Calm Calm - N/A   Clear
6:15 AM 74.3 °F - 73.9 °F 99% 30.10 in 10.0 mi Calm Calm - N/A   Clear
6:35 AM 73.8 °F - 73.6 °F 99% 30.09 in 10.0 mi Calm Calm - N/A   Clear
6:55 AM 74.7 °F - 74.3 °F 99% 30.09 in 10.0 mi Calm Calm - N/A   Clear
7:15 AM 76.1 °F - 75.4 °F 98% 30.10 in 10.0 mi Calm Calm - N/A   Clear
7:35 AM 77.5 °F - 75.6 °F 94% 30.10 in 10.0 mi Calm Calm - N/A   Clear
7:55 AM 78.6 °F - 75.9 °F 91% 30.10 in 10.0 mi Calm Calm - N/A   Clear
8:15 AM 79.7 °F - 75.9 °F 88% 30.11 in 10.0 mi Calm Calm - N/A   Clear
8:35 AM 80.8 °F 86.9 °F 75.7 °F 85% 30.10 in 10.0 mi WSW 3.5 mph - N/A   Clear
8:55 AM 81.7 °F 89.0 °F 76.3 °F 84% 30.10 in 10.0 mi WSW 4.6 mph - N/A   Clear
9:15 AM 82.6 °F 90.5 °F 76.1 °F 81% 30.11 in 10.0 mi SW 4.6 mph - N/A   Clear
9:35 AM 83.7 °F 92.0 °F 75.9 °F 77% 30.11 in 10.0 mi West 5.8 mph - N/A   Scattered Clouds
9:55 AM 84.4 °F 93.1 °F 75.6 °F 75% 30.10 in 10.0 mi WSW 4.6 mph - N/A   Clear
10:15 AM 84.7 °F 92.8 °F 75.0 °F 72% 30.10 in 10.0 mi WSW 5.8 mph - N/A   Scattered Clouds
10:35 AM 85.3 °F 93.0 °F 74.1 °F 69% 30.11 in 10.0 mi WSW 5.8 mph - N/A   Scattered Clouds
10:55 AM 85.8 °F 93.0 °F 73.4 °F 66% 30.10 in 10.0 mi WSW 6.9 mph - N/A   Clear
11:15 AM 86.9 °F 95.4 °F 74.3 °F 66% 30.10 in 10.0 mi West 6.9 mph - N/A   Scattered Clouds
11:35 AM 87.3 °F 95.3 °F 73.9 °F 64% 30.10 in 10.0 mi SW 5.8 mph - N/A   Scattered Clouds
11:55 AM 87.3 °F 94.9 °F 73.2 °F 63% 30.10 in 10.0 mi West 3.5 mph - N/A   Scattered Clouds
12:15 PM 87.4 °F 94.8 °F 73.0 °F 62% 30.10 in 10.0 mi Calm Calm - N/A   Scattered Clouds
12:35 PM 88.5 °F 96.8 °F 73.6 °F 61% 30.09 in 10.0 mi Calm Calm - N/A   Clear
12:55 PM 89.1 °F 96.0 °F 72.0 °F 57% 30.08 in 10.0 mi West 3.5 mph - N/A   Clear
1:15 PM 89.8 °F 97.0 °F 72.3 °F 56% 30.08 in 10.0 mi SSW 4.6 mph - N/A   Clear
1:35 PM 90.1 °F 98.3 °F 72.9 °F 57% 30.07 in 10.0 mi West 5.8 mph - N/A   Clear
1:55 PM 90.3 °F 96.7 °F 71.2 °F 53% 30.06 in 10.0 mi WSW 4.6 mph - N/A   Scattered Clouds
2:15 PM 90.5 °F 97.0 °F 71.2 °F 53% 30.05 in 10.0 mi WSW 5.8 mph - N/A   Clear
2:35 PM 90.3 °F 97.7 °F 72.1 °F 55% 30.05 in 10.0 mi SW 4.6 mph - N/A   Clear
2:55 PM 91.0 °F 99.3 °F 72.9 °F 55% 30.04 in 10.0 mi SSW 6.9 mph - N/A   Scattered Clouds
3:15 PM 90.7 °F 97.9 °F 72.0 °F 54% 30.03 in 10.0 mi SSW 5.8 mph - N/A   Clear
3:35 PM 91.0 °F 99.8 °F 73.6 °F 56% 30.02 in 10.0 mi South 6.9 mph - N/A   Clear
3:55 PM 91.2 °F 100.2 °F 73.4 °F 56% 30.02 in 10.0 mi SSW 6.9 mph - N/A   Clear
4:15 PM 91.2 °F 100.8 °F 73.9 °F 57% 30.01 in 7.0 mi SSW 8.1 mph - N/A   Clear
4:35 PM 90.9 °F 101.2 °F 74.7 °F 59% 30.00 in 10.0 mi South 10.4 mph - N/A   Clear
4:55 PM 89.6 °F 99.8 °F 75.2 °F 62% 30.00 in 10.0 mi South 9.2 mph - N/A   Clear
5:15 PM 87.8 °F 96.6 °F 74.5 °F 64% 29.99 in 10.0 mi South 9.2 mph - N/A   Clear
5:35 PM 87.6 °F 96.2 °F 73.9 °F 64% 29.99 in 10.0 mi SSW 8.1 mph - N/A   Mostly Cloudy
5:55 PM 89.2 °F 99.0 °F 74.7 °F 62% 29.99 in 10.0 mi SW 9.2 mph - N/A   Overcast
6:15 PM 87.8 °F 97.6 °F 75.0 °F 66% 29.98 in 10.0 mi SW 8.1 mph - N/A   Scattered Clouds
6:35 PM 87.4 °F 95.8 °F 73.9 °F 64% 29.98 in 10.0 mi SSW 6.9 mph - N/A   Scattered Clouds
6:55 PM 87.3 °F 96.3 °F 74.5 °F 66% 29.98 in 10.0 mi SW 5.8 mph - N/A   Clear
7:15 PM 86.5 °F 95.0 °F 74.5 °F 67% 29.98 in 7.0 mi SW 6.9 mph - N/A   Clear
7:35 PM 85.8 °F 94.2 °F 74.7 °F 69% 29.99 in 7.0 mi SSW 5.8 mph - N/A   Clear
7:55 PM 84.7 °F 92.8 °F 74.7 °F 72% 29.98 in 10.0 mi SSW 5.8 mph - N/A   Clear
8:15 PM 83.3 °F 89.9 °F 73.9 °F 73% 29.98 in 10.0 mi SSW 5.8 mph - N/A   Clear
8:35 PM 82.4 °F 89.5 °F 75.2 °F 79% 29.98 in 10.0 mi SW 5.8 mph - N/A   Clear
8:55 PM 81.5 °F 88.0 °F 75.4 °F 82% 29.99 in 10.0 mi SSW 4.6 mph - N/A   Clear
9:15 PM 80.8 °F 86.5 °F 75.2 °F 83% 29.99 in 10.0 mi SSW 5.8 mph - N/A   Clear
9:35 PM 80.1 °F 85.1 °F 75.2 °F 85% 29.99 in 10.0 mi South 5.8 mph - N/A   Clear
9:55 PM 79.7 °F - 75.2 °F 86% 30.00 in 10.0 mi SSW 5.8 mph - N/A   Clear
10:15 PM 79.7 °F - 75.2 °F 86% 30.00 in 10.0 mi SSW 3.5 mph - N/A   Clear
10:35 PM 79.0 °F - 75.4 °F 89% 30.00 in 10.0 mi SSW 3.5 mph - N/A   Clear
10:55 PM 78.8 °F - 75.6 °F 90% 30.00 in 10.0 mi SW 3.5 mph - N/A   Clear
11:15 PM 78.8 °F - 75.4 °F 89% 29.99 in 10.0 mi SSW 3.5 mph - N/A   Clear
11:35 PM 78.3 °F - 75.4 °F 91% 29.99 in 10.0 mi SSW 4.6 mph - N/A   Clear
11:55 PM 78.1 °F - 75.4 °F 91% 30.00 in 10.0 mi WSW 3.5 mph - N/A   Clear